Погода в Головановском

Россия / Саратовская область     51°58′03″N   48°07′10″E
темп.,
°C
ветер,
м/с
пор.,
м/с
влажн.,
%
обл.,
%
осадки,
мм/ч
давл.,
гПа
погр.,
м
23 января, сб
сб2301:00−7в3596100 1.1 1021142
04:00−7в2396100 1.5 102279
07:00−4юв4696100 0.1 1022224
10:00−2ю1298100 0.6 102297
13:00+1ю37100100 0.4 1022276
16:00+1ююз37100100 0.6 1021173
19:00+1юз4899100 0.1 1022200
22:00+1ююз4799100 0.1 1023181
24 января, вс
вс2401:00+1юз51097100 0.0 1024328
04:00−1юз4894100 0.0 1024263
07:000ююз489597 0.0 1024240
10:00−1ююз4990100 0.1 1026262
13:000ююз499093 0.0 1027347
16:000ююз4992100 0.0 1026321
19:00−2ю489492 0.0 1028155
22:00−3ю489593 0.0 1028149
25 января, пн
пн2501:00−5ю369577 0.0 1029108
04:00−6ююв349410 0.0 102852
07:00−6ююв3695100 0.0 1030115
10:00−6юв389589 0.0 1028179
13:00−2юв5995100 0.0 1027433
16:00−2ююв6993100 0.1 1028571
19:00−3ююв51094100 0.0 1028513
22:00−2ююв51192100 0.0 1027603
26 января, вт
вт2601:00−4ююв41194100 0.0 1027342
04:00−6ююв4994100 0.0 1027200
07:00−6ююв4109881 0.0 1026244
10:00−3ююв7109799 0.0 1026446
13:00−3ююв71095100 0.0 1026480
16:00−3ююв61094100 0.1 1024477
19:00−2ю61192100 0.0 1025522
22:00−3ююв41193100 0.0 1024445
27 января, ср
ср2701:00−5ююв4993100 0.0 1024270
04:00−4ююв41092100 0.0 1024336
07:00−2ю479599 0.0 1024255
10:00−3ююв51191100 0.0 1022382
13:00−4юв5119176 0.0 1022357
16:00−4вюв359394 0.0 1024129
19:00−8юв5129264 0.0 1021275
22:00−3юв41095100 0.0 1020395